Regional Weather Roundup
Issued by NWS

Home | Current Version | Previous Version | Text Only | Print | Product List | Glossary Off
Versions: 1 2 3 4 5 6 7 8 9 10 11 12 13 14 15 16 17 18 19 20 21 22 23 24 25 26 27 28 29 30 31 32 33 34 35 36 37 38 39 40 41 42 43 44 45 46 47 48 49 50

000
ASUS43 KTOP 280259
RWRKS

WEATHER ROUNDUP FOR KANSAS
NATIONAL WEATHER SERVICE GOODLAND KS
1000 PM CDT FRI MAR 27 2015

NOTE:  "FAIR" INDICATES FEW OR NO CLOUDS BELOW 12,000 FEET WITH NO
SIGNIFICANT WEATHER AND/OR OBSTRUCTIONS TO VISIBILITY.

KSZ001>006-013>018-027>032-041>047-280400-
NORTHWEST KANSAS

CITY           SKY/WX    TMP DP  RH WIND       PRES   REMARKS
GOODLAND       PTCLDY    51  34  52 SW8       30.02R
HAYS           MOCLDY    45  30  57 S8        29.98F
HILL CITY      MOCLDY    51  34  52 CALM      29.96S
RUSSELL        MOCLDY    48  35  60 S15       29.98F
$$

KSZ061>065-074>080-084>089-280400-
SOUTHWEST KANSAS

CITY           SKY/WX    TMP DP  RH WIND       PRES   REMARKS
DODGE CITY     PTCLDY    48  34  58 S13       30.04S
ELKHART          N/A     59  33  37 S10         N/A
GARDEN CITY    PTCLDY    51  37  58 S8        30.02R
GREAT BEND     PTCLDY    46  34  61 S12       30.01F
LIBERAL        PTCLDY    55  34  44 S9        30.07R
$$

KSZ066>073-081>083-090>101-280400-
SOUTHEAST KANSAS

CITY           SKY/WX    TMP DP  RH WIND       PRES   REMARKS
CHANUTE        CLOUDY    45  23  42 SE5       30.14F
COFFEYVILLE    CLOUDY    47  31  53 SE5       30.15S
HUTCHINSON     MOCLDY    43  31  62 SE8       30.06F
MEDICINE LODGE   N/A     47  34  60 S8        30.07F
NEWTON         MOCLDY    41  27  56 SE7       30.09F
PARSONS        CLOUDY    47  28  47 E5        30.15F
WICHITA INTL   MOCLDY    44  29  55 S8        30.07F
WICHITA JABRA  MOCLDY    42  30  62 SE7       30.08F
WINFIELD       PTCLDY    46  31  55 SE6       30.11F
$$

KSZ007>012-019>026-033>040-048>060-102>105-280400-
NORTHEAST KANSAS

CITY           SKY/WX    TMP DP  RH WIND       PRES   REMARKS
CONCORDIA      CLOUDY    40  23  50 SE10      30.06R WCI  33
EMPORIA        MOCLDY    39  22  50 E7        30.10F
LAWRENCE       CLOUDY    40  23  50 E8        30.14F
MANHATTAN      MOCLDY    39  22  50 E5        30.10R
OLATHE IND     CLOUDY    40  23  50 NE6       30.15F
OLATHE EXE     CLOUDY    40  21  46 CALM      30.15S
SALINA         CLOUDY    46  29  51 SE10      30.05F
TOPEKA BILLARD CLOUDY    41  23  48 E9        30.14F
TOPEKA FORBES  CLOUDY    42  23  46 E6        30.12F
$$


USA.gov is the U.S. government's official web portal to all federal, state and local government web resources and services.